Time,TemperatureF,DewpointF,PressureIn,WindDirection,WindDirectionDegrees,WindSpeedMPH,WindSpeedGustMPH,Humidity,HourlyPrecipIn,Conditions,Clouds,dailyrainin,SoftwareType,DateUTC
2013-05-22 00:01:00,76.0,68.6,29.75,NE,36,2.3,2.3,78,0.00,CLR,SKC,0.00,WeatherDisplay:10.37,2013-05-22 04:01:00,
2013-05-22 00:02:00,76.0,68.6,29.75,NE,36,1.1,0.0,78,0.00,CLR,SKC,0.00,WeatherDisplay:10.37,2013-05-22 04:02:00,
2013-05-22 00:07:00,75.8,68.8,29.75,SE,138,0.0,0.0,79,0.00,CLR,SKC,0.00,WeatherDisplay:10.37,2013-05-22 04:07:00,
2013-05-22 00:12:00,75.7,68.7,29.75,NE,54,3.4,3.4,79,0.00,CLR,SKC,0.00,WeatherDisplay:10.37,2013-05-22 04:12:00,
2013-05-22 00:17:00,75.6,69.0,29.75,ENE,74,2.3,2.3,80,0.00,CLR,SKC,0.00,WeatherDisplay:10.37,2013-05-22 04:17:00,
2013-05-22 00:22:00,75.4,68.8,29.75,SSE,154,1.1,1.1,80,0.00,CLR,SKC,0.00,WeatherDisplay:10.37,2013-05-22 04:22:00,
2013-05-22 00:27:00,75.3,68.7,29.75,NNE,22,1.1,1.1,80,0.00,CLR,SKC,0.00,WeatherDisplay:10.37,2013-05-22 04:27:00,
2013-05-22 00:32:00,75.2,68.6,29.75,ENE,57,8.1,8.1,80,0.00,CLR,SKC,0.00,WeatherDisplay:10.37,2013-05-22 04:32:00,
2013-05-22 00:37:00,75.1,68.5,29.75,ESE,111,3.4,3.4,80,0.00,CLR,SKC,0.00,WeatherDisplay:10.37,2013-05-22 04:37:00,
2013-05-22 00:42:00,75.0,68.8,29.75,SSE,151,1.1,1.1,81,0.00,CLR,SKC,0.00,WeatherDisplay:10.37,2013-05-22 04:42:00,
2013-05-22 00:47:00,74.9,68.7,29.75,ESE,109,1.1,1.1,81,0.00,CLR,SKC,0.00,WeatherDisplay:10.37,2013-05-22 04:47:00,
2013-05-22 00:52:00,74.9,68.7,29.75,ESE,113,2.3,2.3,81,0.00,CLR,SKC,0.00,WeatherDisplay:10.37,2013-05-22 04:52:00,
2013-05-22 00:57:00,74.8,68.9,29.75,SSE,167,2.0,2.0,82,0.00,CLR,SKC,0.00,WeatherDisplay:10.37,2013-05-22 04:57:00,
2013-05-22 01:02:00,74.7,68.8,29.75,ESE,107,4.6,4.6,82,0.00,CLR,SKC,0.00,WeatherDisplay:10.37,2013-05-22 05:02:00,
2013-05-22 01:07:00,74.7,68.8,29.75,ENE,59,3.4,3.4,82,0.00,CLR,SKC,0.00,WeatherDisplay:10.37,2013-05-22 05:07:00,
2013-05-22 01:12:00,74.6,68.7,29.75,SE,144,1.1,0.0,82,0.00,CLR,SKC,0.00,WeatherDisplay:10.37,2013-05-22 05:12:00,
2013-05-22 01:17:00,74.6,68.7,29.75,SE,126,5.8,5.8,82,0.00,CLR,SKC,0.00,WeatherDisplay:10.37,2013-05-22 05:17:00,
2013-05-22 01:22:00,74.6,68.7,29.75,SE,125,1.1,0.0,82,0.00,CLR,SKC,0.00,WeatherDisplay:10.37,2013-05-22 05:22:00,
2013-05-22 01:27:00,74.4,68.5,29.75,SE,128,4.0,4.0,82,0.00,CLR,SKC,0.00,WeatherDisplay:10.37,2013-05-22 05:27:00,
2013-05-22 01:32:00,74.4,68.5,29.75,SSE,159,4.6,4.6,82,0.00,CLR,SKC,0.00,WeatherDisplay:10.37,2013-05-22 05:32:00,
2013-05-22 01:37:00,74.3,68.8,29.75,ENE,67,3.4,3.4,83,0.00,CLR,SKC,0.00,WeatherDisplay:10.37,2013-05-22 05:37:00,
2013-05-22 01:42:00,74.2,68.7,29.75,ENE,67,0.0,0.0,83,0.00,CLR,SKC,0.00,WeatherDisplay:10.37,2013-05-22 05:42:00,
2013-05-22 01:47:00,74.1,68.6,29.75,ENE,67,0.0,0.0,83,0.00,CLR,SKC,0.00,WeatherDisplay:10.37,2013-05-22 05:47:00,
2013-05-22 01:52:00,74.0,68.5,29.75,NE,39,1.1,0.0,83,0.00,CLR,SKC,0.00,WeatherDisplay:10.37,2013-05-22 05:52:00,
2013-05-22 01:57:00,73.9,68.4,29.75,NE,39,0.0,0.0,83,0.00,CLR,SKC,0.00,WeatherDisplay:10.37,2013-05-22 05:57:00,
2013-05-22 02:02:00,73.8,68.3,29.75,NE,39,0.0,0.0,83,0.00,CLR,SKC,0.00,WeatherDisplay:10.37,2013-05-22 06:02:00,
2013-05-22 02:07:00,73.6,68.1,29.75,NE,39,0.0,0.0,83,0.00,CLR,SKC,0.00,WeatherDisplay:10.37,2013-05-22 06:07:00,
2013-05-22 02:12:00,73.4,68.3,29.75,NE,39,0.0,0.0,84,0.00,CLR,SKC,0.00,WeatherDisplay:10.37,2013-05-22 06:12:00,
2013-05-22 02:17:00,73.2,68.1,29.75,NE,39,0.0,0.0,84,0.00,CLR,SKC,0.00,WeatherDisplay:10.37,2013-05-22 06:17:00,
2013-05-22 02:22:00,73.0,68.2,29.75,NE,47,0.0,0.0,85,0.00,CLR,SKC,0.00,WeatherDisplay:10.37,2013-05-22 06:22:00,
2013-05-22 02:27:00,72.8,68.0,29.75,NE,48,0.0,0.0,85,0.00,CLR,SKC,0.00,WeatherDisplay:10.37,2013-05-22 06:27:00,
2013-05-22 02:32:00,72.7,67.9,29.74,NE,48,0.0,0.0,85,0.00,CLR,SKC,0.00,WeatherDisplay:10.37,2013-05-22 06:32:00,
2013-05-22 02:37:00,72.4,68.0,29.74,NE,48,0.0,0.0,86,0.00,CLR,SKC,0.00,WeatherDisplay:10.37,2013-05-22 06:37:00,
2013-05-22 02:42:00,72.3,67.9,29.74,NE,48,2.3,2.3,86,0.00,CLR,SKC,0.00,WeatherDisplay:10.37,2013-05-22 06:42:00,
2013-05-22 02:47:00,72.2,67.8,29.74,NE,48,0.0,0.0,86,0.00,CLR,SKC,0.00,WeatherDisplay:10.37,2013-05-22 06:47:00,
2013-05-22 02:52:00,72.1,67.7,29.74,NE,48,0.0,0.0,86,0.00,CLR,SKC,0.00,WeatherDisplay:10.37,2013-05-22 06:52:00,
2013-05-22 02:57:00,71.9,67.8,29.74,NE,48,0.0,0.0,87,0.00,CLR,SKC,0.00,WeatherDisplay:10.37,2013-05-22 06:57:00,
2013-05-22 03:02:00,71.7,67.6,29.74,NE,48,0.0,0.0,87,0.00,CLR,SKC,0.00,WeatherDisplay:10.37,2013-05-22 07:02:00,
2013-05-22 03:07:00,71.5,67.4,29.74,NE,48,0.0,0.0,87,0.00,CLR,SKC,0.00,WeatherDisplay:10.37,2013-05-22 07:07:00,
2013-05-22 03:12:00,71.3,67.6,29.74,NE,48,0.0,0.0,88,0.00,CLR,SKC,0.00,WeatherDisplay:10.37,2013-05-22 07:12:00,
2013-05-22 03:17:00,71.1,67.7,29.74,NE,48,0.0,0.0,89,0.00,CLR,SKC,0.00,WeatherDisplay:10.37,2013-05-22 07:17:00,
2013-05-22 03:22:00,71.0,67.6,29.74,NE,48,0.0,0.0,89,0.00,CLR,SKC,0.00,WeatherDisplay:10.37,2013-05-22 07:22:00,
2013-05-22 03:27:00,70.9,67.5,29.74,NE,48,0.0,0.0,89,0.00,CLR,SKC,0.00,WeatherDisplay:10.37,2013-05-22 07:27:00,
2013-05-22 03:32:00,70.8,67.7,29.74,NE,48,0.0,0.0,90,0.00,CLR,SKC,0.00,WeatherDisplay:10.37,2013-05-22 07:32:00,
2013-05-22 03:37:00,70.7,67.6,29.74,NE,48,0.0,0.0,90,0.00,CLR,SKC,0.00,WeatherDisplay:10.37,2013-05-22 07:37:00,
2013-05-22 03:42:00,70.6,67.5,29.74,NE,48,0.0,0.0,90,0.00,CLR,SKC,0.00,WeatherDisplay:10.37,2013-05-22 07:42:00,
2013-05-22 03:47:00,70.5,67.4,29.74,NE,48,0.0,0.0,90,0.00,CLR,SKC,0.00,WeatherDisplay:10.37,2013-05-22 07:47:00,
2013-05-22 03:52:00,70.4,67.3,29.74,NE,48,0.0,0.0,90,0.00,CLR,SKC,0.00,WeatherDisplay:10.37,2013-05-22 07:52:00,
2013-05-22 03:57:00,70.4,67.6,29.74,NE,48,0.0,0.0,91,0.00,CLR,SKC,0.00,WeatherDisplay:10.37,2013-05-22 07:57:00,
2013-05-22 04:02:00,70.4,67.6,29.73,NE,48,0.0,0.0,91,0.00,CLR,SKC,0.00,WeatherDisplay:10.37,2013-05-22 08:02:00,
2013-05-22 04:07:00,70.5,67.7,29.73,NE,48,0.0,0.0,91,0.00,CLR,SKC,0.00,WeatherDisplay:10.37,2013-05-22 08:07:00,
2013-05-22 04:12:00,70.5,67.7,29.73,NE,48,1.1,0.0,91,0.00,CLR,SKC,0.00,WeatherDisplay:10.37,2013-05-22 08:12:00,
2013-05-22 04:17:00,70.6,67.8,29.74,NE,48,0.0,0.0,91,0.00,CLR,SKC,0.00,WeatherDisplay:10.37,2013-05-22 08:17:00,
2013-05-22 04:22:00,70.6,67.8,29.74,NE,48,0.0,0.0,91,0.00,CLR,SKC,0.00,WeatherDisplay:10.37,2013-05-22 08:22:00,
2013-05-22 04:27:00,70.5,67.7,29.74,NE,48,0.0,0.0,91,0.00,CLR,SKC,0.00,WeatherDisplay:10.37,2013-05-22 08:27:00,
2013-05-22 04:32:00,70.4,67.3,29.74,NE,48,0.0,0.0,90,0.00,CLR,SKC,0.00,WeatherDisplay:10.37,2013-05-22 08:32:00,
2013-05-22 04:37:00,70.2,67.1,29.74,NE,48,0.0,0.0,90,0.00,CLR,SKC,0.00,WeatherDisplay:10.37,2013-05-22 08:37:00,
2013-05-22 04:42:00,70.1,67.3,29.74,NE,48,0.0,0.0,91,0.00,CLR,SKC,0.00,WeatherDisplay:10.37,2013-05-22 08:42:00,
2013-05-22 04:47:00,69.9,67.2,29.74,NE,48,0.0,0.0,91,0.00,CLR,SKC,0.00,WeatherDisplay:10.37,2013-05-22 08:47:00,
2013-05-22 04:52:00,69.6,66.9,29.74,NE,48,0.0,0.0,91,0.00,CLR,SKC,0.00,WeatherDisplay:10.37,2013-05-22 08:52:00,
2013-05-22 04:57:00,69.4,66.7,29.74,NE,48,0.0,0.0,91,0.00,CLR,SKC,0.00,WeatherDisplay:10.37,2013-05-22 08:57:00,
2013-05-22 05:02:00,69.3,66.9,29.74,NE,48,0.0,0.0,92,0.00,CLR,SKC,0.00,WeatherDisplay:10.37,2013-05-22 09:02:00,
2013-05-22 05:07:00,69.1,66.7,29.74,NE,48,0.0,0.0,92,0.00,CLR,SKC,0.00,WeatherDisplay:10.37,2013-05-22 09:07:00,
2013-05-22 05:12:00,68.9,66.5,29.74,NE,48,0.0,0.0,92,0.00,CLR,SKC,0.00,WeatherDisplay:10.37,2013-05-22 09:12:00,
2013-05-22 05:17:00,68.7,66.3,29.74,NE,48,0.0,0.0,92,0.00,CLR,SKC,0.00,WeatherDisplay:10.37,2013-05-22 09:17:00,
2013-05-22 05:22:00,68.5,66.1,29.74,NE,48,0.0,0.0,92,0.00,CLR,SKC,0.00,WeatherDisplay:10.37,2013-05-22 09:22:00,
2013-05-22 05:27:00,68.3,65.9,29.74,NE,48,0.0,0.0,92,0.00,CLR,SKC,0.00,WeatherDisplay:10.37,2013-05-22 09:27:00,
2013-05-22 05:32:00,68.2,66.1,29.74,NE,48,0.0,0.0,93,0.00,CLR,SKC,0.00,WeatherDisplay:10.37,2013-05-22 09:32:00,
2013-05-22 05:37:00,68.0,65.9,29.74,NE,48,0.0,0.0,93,0.00,CLR,SKC,0.00,WeatherDisplay:10.37,2013-05-22 09:37:00,
2013-05-22 05:42:00,67.9,65.8,29.74,NE,48,0.0,0.0,93,0.00,CLR,SKC,0.00,WeatherDisplay:10.37,2013-05-22 09:42:00,
2013-05-22 05:47:00,67.8,66.0,29.74,NE,48,0.0,0.0,94,0.00,CLR,SKC,0.00,WeatherDisplay:10.37,2013-05-22 09:47:00,
2013-05-22 05:52:00,67.6,65.8,29.75,NE,48,0.0,0.0,94,0.00,CLR,SKC,0.00,WeatherDisplay:10.37,2013-05-22 09:52:00,
2013-05-22 05:57:00,67.5,65.7,29.75,NE,48,0.0,0.0,94,0.00,CLR,SKC,0.00,WeatherDisplay:10.37,2013-05-22 09:57:00,
2013-05-22 06:02:00,67.4,65.6,29.75,NE,48,0.0,0.0,94,0.00,CLR,SKC,0.00,WeatherDisplay:10.37,2013-05-22 10:02:00,
2013-05-22 06:07:00,67.4,65.6,29.75,NE,48,0.0,0.0,94,0.00,CLR,SKC,0.00,WeatherDisplay:10.37,2013-05-22 10:07:00,
2013-05-22 06:12:00,67.2,65.4,29.75,NE,48,0.0,0.0,94,0.00,CLR,SKC,0.00,WeatherDisplay:10.37,2013-05-22 10:12:00,
2013-05-22 06:17:00,67.1,65.3,29.76,NE,48,0.0,0.0,94,0.00,CLR,SKC,0.00,WeatherDisplay:10.37,2013-05-22 10:17:00,
2013-05-22 06:22:00,67.0,65.2,29.76,NE,48,0.0,0.0,94,0.00,CLR,SKC,0.00,WeatherDisplay:10.37,2013-05-22 10:22:00,
2013-05-22 06:27:00,67.0,65.5,29.76,NE,48,0.0,0.0,95,0.00,CLR,SKC,0.00,WeatherDisplay:10.37,2013-05-22 10:27:00,
2013-05-22 06:32:00,67.0,65.5,29.77,NE,48,0.0,0.0,95,0.00,CLR,SKC,0.00,WeatherDisplay:10.37,2013-05-22 10:32:00,
2013-05-22 06:37:00,67.0,65.5,29.77,NE,48,0.0,0.0,95,0.00,CLR,SKC,0.00,WeatherDisplay:10.37,2013-05-22 10:37:00,
2013-05-22 06:42:00,67.0,65.5,29.77,ENE,78,0.0,0.0,95,0.00,CLR,SKC,0.00,WeatherDisplay:10.37,2013-05-22 10:42:00,
2013-05-22 06:47:00,67.1,65.9,29.77,ENE,78,0.0,0.0,96,0.00,CLR,SKC,0.00,WeatherDisplay:10.37,2013-05-22 10:47:00,
2013-05-22 06:52:00,67.2,66.0,29.77,ENE,78,0.0,0.0,96,0.00,CLR,SKC,0.00,WeatherDisplay:10.37,2013-05-22 10:52:00,
2013-05-22 06:57:00,67.4,66.2,29.77,ENE,78,0.0,0.0,96,0.00,CLR,SKC,0.00,WeatherDisplay:10.37,2013-05-22 10:57:00,
2013-05-22 07:02:00,67.7,66.5,29.77,ENE,78,0.0,0.0,96,0.00,CLR,SKC,0.00,WeatherDisplay:10.37,2013-05-22 11:02:00,
2013-05-22 07:07:00,68.0,66.8,29.77,ENE,78,0.0,0.0,96,0.00,CLR,SKC,0.00,WeatherDisplay:10.37,2013-05-22 11:07:00,
2013-05-22 07:12:00,68.4,67.5,29.77,ENE,78,0.0,0.0,97,0.00,CLR,SKC,0.00,WeatherDisplay:10.37,2013-05-22 11:12:00,
2013-05-22 07:17:00,68.9,67.7,29.77,ENE,78,0.0,0.0,96,0.00,CLR,SKC,0.00,WeatherDisplay:10.37,2013-05-22 11:17:00,
2013-05-22 07:22:00,69.4,68.2,29.77,ENE,78,0.0,0.0,96,0.00,CLR,SKC,0.00,WeatherDisplay:10.37,2013-05-22 11:22:00,
2013-05-22 07:27:00,69.9,68.7,29.77,ENE,78,1.1,0.0,96,0.00,CLR,SKC,0.00,WeatherDisplay:10.37,2013-05-22 11:27:00,
2013-05-22 07:32:00,70.5,68.7,29.77,ENE,78,1.1,0.0,94,0.00,CLR,SKC,0.00,WeatherDisplay:10.37,2013-05-22 11:32:00,
2013-05-22 07:37:00,71.0,69.2,29.77,ENE,78,1.1,0.0,94,0.00,CLR,SKC,0.00,WeatherDisplay:10.37,2013-05-22 11:37:00,
2013-05-22 07:42:00,71.4,69.3,29.77,ESE,115,1.1,0.0,93,0.00,CLR,SKC,0.00,WeatherDisplay:10.37,2013-05-22 11:42:00,
2013-05-22 07:47:00,71.7,68.9,29.78,ESE,115,0.0,0.0,91,0.00,CLR,SKC,0.00,WeatherDisplay:10.37,2013-05-22 11:47:00,
2013-05-22 07:52:00,72.1,69.3,29.77,ESE,115,0.0,0.0,91,0.00,CLR,SKC,0.00,WeatherDisplay:10.37,2013-05-22 11:52:00,
2013-05-22 07:57:00,72.6,69.8,29.78,ESE,115,0.0,0.0,91,0.00,CLR,SKC,0.00,WeatherDisplay:10.37,2013-05-22 11:57:00,
2013-05-22 08:02:00,73.1,69.7,29.78,ESE,119,0.0,0.0,89,0.00,CLR,SKC,0.00,WeatherDisplay:10.37,2013-05-22 12:02:00,
2013-05-22 08:07:00,73.9,70.1,29.78,ESE,119,1.1,1.1,88,0.00,CLR,SKC,0.00,WeatherDisplay:10.37,2013-05-22 12:07:00,
2013-05-22 08:12:00,74.6,70.5,29.78,ESE,119,2.3,2.3,87,0.00,CLR,SKC,0.00,WeatherDisplay:10.37,2013-05-22 12:12:00,
2013-05-22 08:17:00,75.4,70.9,29.78,ENE,65,0.0,0.0,86,0.00,CLR,SKC,0.00,WeatherDisplay:10.37,2013-05-22 12:17:00,
2013-05-22 08:22:00,76.0,71.2,29.78,SE,144,0.0,0.0,85,0.00,CLR,SKC,0.00,WeatherDisplay:10.37,2013-05-22 12:22:00,
2013-05-22 08:27:00,76.6,71.4,29.78,ESE,105,1.1,1.1,84,0.00,CLR,SKC,0.00,WeatherDisplay:10.37,2013-05-22 12:27:00,
2013-05-22 08:32:00,76.9,71.7,29.78,ESE,114,0.0,0.0,84,0.00,CLR,SKC,0.00,WeatherDisplay:10.37,2013-05-22 12:32:00,
2013-05-22 08:37:00,77.1,71.5,29.78,ESE,114,0.0,0.0,83,0.00,CLR,SKC,0.00,WeatherDisplay:10.37,2013-05-22 12:37:00,
2013-05-22 08:42:00,77.2,71.3,29.78,ENE,68,1.1,1.1,82,0.00,CLR,SKC,0.00,WeatherDisplay:10.37,2013-05-22 12:42:00,
2013-05-22 08:47:00,77.1,71.2,29.78,ENE,68,0.0,0.0,82,0.00,CLR,SKC,0.00,WeatherDisplay:10.37,2013-05-22 12:47:00,
2013-05-22 08:52:00,77.1,71.2,29.78,ENE,68,1.1,0.0,82,0.00,CLR,SKC,0.00,WeatherDisplay:10.37,2013-05-22 12:52:00,
2013-05-22 08:57:00,76.9,71.0,29.79,NE,40,4.6,4.6,82,0.00,CLR,SKC,0.00,WeatherDisplay:10.37,2013-05-22 12:57:00,
2013-05-22 09:02:00,76.4,70.9,29.79,SSE,150,3.4,3.4,83,0.00,CLR,SKC,0.00,WeatherDisplay:10.37,2013-05-22 13:02:00,
2013-05-22 09:07:00,76.2,70.7,29.79,ENE,60,4.6,4.6,83,0.00,CLR,SKC,0.00,WeatherDisplay:10.37,2013-05-22 13:07:00,
2013-05-22 09:12:00,76.1,70.6,29.79,South,171,3.4,3.4,83,0.00,CLR,SKC,0.00,WeatherDisplay:10.37,2013-05-22 13:12:00,
2013-05-22 09:17:00,76.0,70.5,29.79,NE,34,5.0,5.0,83,0.00,CLR,SKC,0.00,WeatherDisplay:10.37,2013-05-22 13:17:00,
2013-05-22 09:22:00,76.1,70.9,29.79,ESE,121,0.0,0.0,84,0.00,CLR,SKC,0.00,WeatherDisplay:10.37,2013-05-22 13:22:00,
2013-05-22 09:27:00,76.2,70.7,29.79,South,175,1.1,1.1,83,0.00,CLR,SKC,0.00,WeatherDisplay:10.37,2013-05-22 13:27:00,
2013-05-22 09:32:00,76.3,71.1,29.79,South,171,1.1,1.1,84,0.00,CLR,SKC,0.00,WeatherDisplay:10.37,2013-05-22 13:32:00,
2013-05-22 09:37:00,76.4,70.9,29.79,South,181,2.3,2.3,83,0.00,CLR,SKC,0.00,WeatherDisplay:10.37,2013-05-22 13:37:00,
2013-05-22 09:42:00,76.4,70.9,29.79,NNE,26,2.3,2.3,83,0.00,CLR,SKC,0.00,WeatherDisplay:10.37,2013-05-22 13:42:00,
2013-05-22 09:47:00,76.5,70.9,29.79,East,91,0.0,0.0,83,0.00,CLR,SKC,0.00,WeatherDisplay:10.37,2013-05-22 13:47:00,
2013-05-22 09:52:00,76.6,71.0,29.79,ESE,102,1.1,1.1,83,0.00,CLR,SKC,0.00,WeatherDisplay:10.37,2013-05-22 13:52:00,
2013-05-22 09:57:00,76.8,71.2,29.79,ESE,102,0.0,0.0,83,0.00,CLR,SKC,0.00,WeatherDisplay:10.37,2013-05-22 13:57:00,
2013-05-22 10:02:00,77.4,71.5,29.79,ESE,102,1.1,0.0,82,0.00,CLR,SKC,0.00,WeatherDisplay:10.37,2013-05-22 14:02:00,
2013-05-22 10:07:00,78.0,71.0,29.79,ENE,65,1.1,1.1,79,0.00,CLR,SKC,0.00,WeatherDisplay:10.37,2013-05-22 14:07:00,
2013-05-22 10:12:00,78.5,71.1,29.79,ENE,65,1.1,0.0,78,0.00,CLR,SKC,0.00,WeatherDisplay:10.37,2013-05-22 14:12:00,
2013-05-22 10:17:00,78.7,69.7,29.79,South,174,1.1,0.0,74,0.00,CLR,SKC,0.00,WeatherDisplay:10.37,2013-05-22 14:17:00,
2013-05-22 10:22:00,78.7,70.1,29.79,NE,49,3.4,3.4,75,0.00,CLR,SKC,0.00,WeatherDisplay:10.37,2013-05-22 14:22:00,
2013-05-22 10:27:00,78.9,70.3,29.79,NE,49,0.0,0.0,75,0.00,CLR,SKC,0.00,WeatherDisplay:10.37,2013-05-22 14:27:00,
2013-05-22 10:32:00,79.0,70.0,29.79,NE,49,3.4,3.4,74,0.00,CLR,SKC,0.00,WeatherDisplay:10.37,2013-05-22 14:32:00,
2013-05-22 10:37:00,79.1,68.9,29.79,NNW,337,1.0,1.0,71,0.00,CLR,SKC,0.00,WeatherDisplay:10.37,2013-05-22 14:37:00,
2013-05-22 10:42:00,79.3,69.9,29.79,NNE,22,3.4,3.4,73,0.00,CLR,SKC,0.00,WeatherDisplay:10.37,2013-05-22 14:42:00,
2013-05-22 10:47:00,79.5,70.5,29.79,NNE,22,0.0,0.0,74,0.00,CLR,SKC,0.00,WeatherDisplay:10.37,2013-05-22 14:47:00,
2013-05-22 10:52:00,79.6,70.2,29.79,NNE,22,3.4,3.4,73,0.00,CLR,SKC,0.00,WeatherDisplay:10.37,2013-05-22 14:52:00,
2013-05-22 10:57:00,79.8,69.6,29.79,NNE,23,3.4,3.4,71,0.00,CLR,SKC,0.00,WeatherDisplay:10.37,2013-05-22 14:57:00,
2013-05-22 11:02:00,80.3,68.8,29.79,NE,44,4.0,4.0,68,0.00,CLR,SKC,0.00,WeatherDisplay:10.37,2013-05-22 15:02:00,
2013-05-22 11:07:00,81.0,69.4,29.79,NE,45,3.4,3.4,68,0.00,CLR,SKC,0.00,WeatherDisplay:10.37,2013-05-22 15:07:00,
2013-05-22 11:12:00,81.7,67.9,29.79,NE,38,5.8,5.8,63,0.00,CLR,SKC,0.00,WeatherDisplay:10.37,2013-05-22 15:12:00,
2013-05-22 11:17:00,82.1,69.2,29.78,NE,40,2.3,2.3,65,0.00,CLR,SKC,0.00,WeatherDisplay:10.37,2013-05-22 15:17:00,
2013-05-22 11:22:00,82.5,67.7,29.78,SSW,192,5.8,5.8,61,0.00,CLR,SKC,0.00,WeatherDisplay:10.37,2013-05-22 15:22:00,
2013-05-22 11:27:00,82.9,69.5,29.78,ENE,67,4.6,4.6,64,0.00,CLR,SKC,0.00,WeatherDisplay:10.37,2013-05-22 15:27:00,
2013-05-22 11:32:00,83.4,69.0,29.78,NE,41,1.1,1.1,62,0.00,CLR,SKC,0.00,WeatherDisplay:10.37,2013-05-22 15:32:00,
2013-05-22 11:37:00,83.9,67.5,29.78,East,88,3.4,3.4,58,0.00,CLR,SKC,0.00,WeatherDisplay:10.37,2013-05-22 15:37:00,
2013-05-22 11:42:00,84.3,70.3,29.78,NE,34,4.6,4.6,63,0.00,CLR,SKC,0.00,WeatherDisplay:10.37,2013-05-22 15:42:00,
2013-05-22 11:47:00,84.7,70.7,29.78,ENE,64,1.0,0.0,63,0.00,CLR,SKC,0.00,WeatherDisplay:10.37,2013-05-22 15:47:00,
2013-05-22 11:52:00,84.8,71.7,29.78,South,184,1.1,1.1,65,0.00,CLR,SKC,0.00,WeatherDisplay:10.37,2013-05-22 15:52:00,
2013-05-22 11:57:00,84.8,69.9,29.78,SE,124,1.1,1.1,61,0.00,CLR,SKC,0.00,WeatherDisplay:10.37,2013-05-22 15:57:00,
2013-05-22 12:02:00,85.1,70.1,29.77,ENE,57,3.4,3.4,61,0.00,CLR,SKC,0.00,WeatherDisplay:10.37,2013-05-22 16:02:00,
2013-05-22 12:07:00,85.2,69.3,29.77,NNE,18,6.0,6.0,59,0.00,CLR,SKC,0.00,WeatherDisplay:10.37,2013-05-22 16:07:00,
2013-05-22 12:12:00,85.0,68.1,29.77,NE,48,1.1,1.1,57,0.00,CLR,SKC,0.00,WeatherDisplay:10.37,2013-05-22 16:12:00,
2013-05-22 12:17:00,85.2,69.7,29.77,South,169,2.3,2.3,60,0.00,CLR,SKC,0.00,WeatherDisplay:10.37,2013-05-22 16:17:00,
2013-05-22 12:22:00,85.5,68.5,29.77,NE,34,5.8,5.8,57,0.00,CLR,SKC,0.00,WeatherDisplay:10.37,2013-05-22 16:22:00,
2013-05-22 12:27:00,85.6,69.6,29.77,ENE,72,0.0,0.0,59,0.00,CLR,SKC,0.00,WeatherDisplay:10.37,2013-05-22 16:27:00,
2013-05-22 12:32:00,85.9,69.9,29.76,SE,136,2.3,2.3,59,0.00,CLR,SKC,0.00,WeatherDisplay:10.37,2013-05-22 16:32:00,
2013-05-22 12:37:00,86.1,69.6,29.76,SW,219,3.4,3.4,58,0.00,CLR,SKC,0.00,WeatherDisplay:10.37,2013-05-22 16:37:00,
2013-05-22 12:42:00,86.1,69.1,29.76,South,171,3.4,3.4,57,0.00,CLR,SKC,0.00,WeatherDisplay:10.37,2013-05-22 16:42:00,
2013-05-22 12:47:00,86.1,69.1,29.76,NNE,23,3.4,3.4,57,0.00,CLR,SKC,0.00,WeatherDisplay:10.37,2013-05-22 16:47:00,
2013-05-22 12:52:00,86.1,67.5,29.76,NNE,31,4.6,4.6,54,0.00,CLR,SKC,0.00,WeatherDisplay:10.37,2013-05-22 16:52:00,
2013-05-22 12:57:00,86.0,70.5,29.76,South,185,2.3,2.3,60,0.00,CLR,SKC,0.00,WeatherDisplay:10.37,2013-05-22 16:57:00,
2013-05-22 13:02:00,86.2,67.6,29.75,NE,44,8.1,8.1,54,0.00,CLR,SKC,0.00,WeatherDisplay:10.37,2013-05-22 17:02:00,
2013-05-22 13:07:00,86.5,67.9,29.75,ENE,74,3.4,3.4,54,0.00,CLR,SKC,0.00,WeatherDisplay:10.37,2013-05-22 17:07:00,
2013-05-22 13:12:00,87.0,69.9,29.75,ENE,58,0.0,0.0,57,0.00,CLR,SKC,0.00,WeatherDisplay:10.37,2013-05-22 17:12:00,
2013-05-22 13:17:00,87.3,67.5,29.75,South,171,2.3,2.3,52,0.00,CLR,SKC,0.00,WeatherDisplay:10.37,2013-05-22 17:17:00,
2013-05-22 13:22:00,87.1,67.9,29.75,SSW,204,1.1,1.1,53,0.00,CLR,SKC,0.00,WeatherDisplay:10.37,2013-05-22 17:22:00,
2013-05-22 13:27:00,87.0,67.8,29.75,SSE,162,1.1,1.1,53,0.00,CLR,SKC,0.00,WeatherDisplay:10.37,2013-05-22 17:27:00,
2013-05-22 13:32:00,87.5,69.9,29.75,East,99,3.4,3.4,56,0.00,CLR,SKC,0.00,WeatherDisplay:10.37,2013-05-22 17:32:00,
2013-05-22 13:37:00,87.6,67.2,29.75,SSE,160,4.0,4.0,51,0.00,CLR,SKC,0.00,WeatherDisplay:10.37,2013-05-22 17:37:00,
2013-05-22 13:42:00,87.4,68.7,29.74,SE,139,1.1,1.1,54,0.00,CLR,SKC,0.00,WeatherDisplay:10.37,2013-05-22 17:42:00,
2013-05-22 13:47:00,87.6,66.1,29.74,SSE,167,0.0,0.0,49,0.00,CLR,SKC,0.00,WeatherDisplay:10.37,2013-05-22 17:47:00,
2013-05-22 13:52:00,87.9,66.9,29.74,SSE,153,4.6,4.6,50,0.00,CLR,SKC,0.00,WeatherDisplay:10.37,2013-05-22 17:52:00,
2013-05-22 13:57:00,88.2,67.2,29.74,NE,43,3.4,3.4,50,0.00,CLR,SKC,0.00,WeatherDisplay:10.37,2013-05-22 17:57:00,
2013-05-22 14:02:00,88.4,67.4,29.73,SSE,167,0.0,0.0,50,0.00,CLR,SKC,0.00,WeatherDisplay:10.37,2013-05-22 18:02:00,
2013-05-22 14:07:00,88.4,65.6,29.73,East,98,2.3,2.3,47,0.00,CLR,SKC,0.00,WeatherDisplay:10.37,2013-05-22 18:07:00,
2013-05-22 14:12:00,88.5,66.9,29.73,ENE,60,3.4,3.4,49,0.00,CLR,SKC,0.00,WeatherDisplay:10.37,2013-05-22 18:12:00,
2013-05-22 14:17:00,88.7,65.9,29.73,East,86,5.8,5.8,47,0.00,CLR,SKC,0.00,WeatherDisplay:10.37,2013-05-22 18:17:00,
2013-05-22 14:22:00,88.8,64.7,29.73,ENE,69,11.5,11.5,45,0.00,CLR,SKC,0.00,WeatherDisplay:10.37,2013-05-22 18:22:00,
2013-05-22 14:27:00,88.8,66.0,29.73,South,171,1.1,1.1,47,0.00,CLR,SKC,0.00,WeatherDisplay:10.37,2013-05-22 18:27:00,
2013-05-22 14:32:00,88.8,67.2,29.73,South,173,1.1,1.1,49,0.00,CLR,SKC,0.00,WeatherDisplay:10.37,2013-05-22 18:32:00,
2013-05-22 14:37:00,89.0,67.4,29.73,SE,146,1.1,1.1,49,0.00,CLR,SKC,0.00,WeatherDisplay:10.37,2013-05-22 18:37:00,
2013-05-22 14:42:00,89.4,66.5,29.73,NE,47,3.4,3.4,47,0.00,CLR,SKC,0.00,WeatherDisplay:10.37,2013-05-22 18:42:00,
2013-05-22 14:47:00,89.7,66.2,29.72,NE,53,6.9,6.9,46,0.00,CLR,SKC,0.00,WeatherDisplay:10.37,2013-05-22 18:47:00,
2013-05-22 14:52:00,89.3,66.4,29.72,SSE,147,1.1,1.1,47,0.00,CLR,SKC,0.00,WeatherDisplay:10.37,2013-05-22 18:52:00,
2013-05-22 14:57:00,89.3,66.4,29.72,SE,134,5.8,5.8,47,0.00,CLR,SKC,0.00,WeatherDisplay:10.37,2013-05-22 18:57:00,
2013-05-22 15:02:00,89.3,66.4,29.72,South,174,1.1,1.1,47,0.00,CLR,SKC,0.00,WeatherDisplay:10.37,2013-05-22 19:02:00,
2013-05-22 15:07:00,89.2,67.5,29.72,NNE,18,4.6,4.6,49,0.00,CLR,SKC,0.00,WeatherDisplay:10.37,2013-05-22 19:07:00,
2013-05-22 15:12:00,89.0,67.9,29.72,SE,132,5.8,5.8,50,0.00,CLR,SKC,0.00,WeatherDisplay:10.37,2013-05-22 19:12:00,
2013-05-22 15:17:00,88.9,69.6,29.72,ESE,123,3.4,3.4,53,0.00,CLR,SKC,0.00,WeatherDisplay:10.37,2013-05-22 19:17:00,
2013-05-22 15:22:00,88.9,67.9,29.72,SSE,155,3.4,3.4,50,0.00,CLR,SKC,0.00,WeatherDisplay:10.37,2013-05-22 19:22:00,
2013-05-22 15:27:00,88.8,67.8,29.72,SE,134,6.9,6.9,50,0.00,CLR,SKC,0.00,WeatherDisplay:10.37,2013-05-22 19:27:00,
2013-05-22 15:32:00,88.8,67.8,29.71,SSW,207,2.3,2.3,50,0.00,CLR,SKC,0.00,WeatherDisplay:10.37,2013-05-22 19:32:00,
2013-05-22 15:37:00,88.6,67.0,29.71,East,92,6.9,6.9,49,0.00,CLR,SKC,0.00,WeatherDisplay:10.37,2013-05-22 19:37:00,
2013-05-22 15:42:00,88.5,67.5,29.71,SE,138,3.4,3.4,50,0.00,CLR,SKC,0.00,WeatherDisplay:10.37,2013-05-22 19:42:00,
2013-05-22 15:47:00,88.7,69.9,29.71,South,172,2.3,2.3,54,0.00,CLR,SKC,0.00,WeatherDisplay:10.37,2013-05-22 19:47:00,
2013-05-22 15:52:00,88.9,67.3,29.71,SSE,150,4.0,4.0,49,0.00,CLR,SKC,0.00,WeatherDisplay:10.37,2013-05-22 19:52:00,
2013-05-22 15:57:00,89.1,67.5,29.70,SE,134,2.3,2.3,49,0.00,CLR,SKC,0.00,WeatherDisplay:10.37,2013-05-22 19:57:00,
2013-05-22 16:02:00,89.2,66.3,29.70,ENE,65,4.0,4.0,47,0.00,CLR,SKC,0.00,WeatherDisplay:10.37,2013-05-22 20:02:00,
2013-05-22 16:07:00,89.3,67.0,29.70,SSE,161,1.1,0.0,48,0.00,CLR,SKC,0.00,WeatherDisplay:10.37,2013-05-22 20:07:00,
2013-05-22 16:12:00,89.1,68.6,29.70,South,175,4.6,4.6,51,0.00,CLR,SKC,0.00,WeatherDisplay:10.37,2013-05-22 20:12:00,
2013-05-22 16:17:00,88.9,67.9,29.69,SE,136,3.4,3.4,50,0.00,CLR,SKC,0.00,WeatherDisplay:10.37,2013-05-22 20:17:00,
2013-05-22 16:22:00,88.9,66.7,29.69,East,83,0.0,0.0,48,0.00,CLR,SKC,0.00,WeatherDisplay:10.37,2013-05-22 20:22:00,
2013-05-22 16:27:00,88.9,66.1,29.69,East,90,3.4,3.4,47,0.00,CLR,SKC,0.00,WeatherDisplay:10.37,2013-05-22 20:27:00,
2013-05-22 16:32:00,89.0,67.4,29.69,East,101,4.6,4.6,49,0.00,CLR,SKC,0.00,WeatherDisplay:10.37,2013-05-22 20:32:00,
2013-05-22 16:37:00,89.0,66.8,29.69,South,182,2.3,2.3,48,0.00,CLR,SKC,0.00,WeatherDisplay:10.37,2013-05-22 20:37:00,
2013-05-22 16:42:00,88.8,66.6,29.68,NNE,23,1.1,1.1,48,0.00,CLR,SKC,0.00,WeatherDisplay:10.37,2013-05-22 20:42:00,
2013-05-22 16:47:00,88.8,66.6,29.68,SSE,155,3.4,3.4,48,0.00,CLR,SKC,0.00,WeatherDisplay:10.37,2013-05-22 20:47:00,
2013-05-22 16:52:00,88.7,66.5,29.68,North,9,4.6,4.6,48,0.00,CLR,SKC,0.00,WeatherDisplay:10.37,2013-05-22 20:52:00,
2013-05-22 16:57:00,88.8,66.6,29.68,SSE,153,6.0,6.0,48,0.00,CLR,SKC,0.00,WeatherDisplay:10.37,2013-05-22 20:57:00,
2013-05-22 17:02:00,88.8,66.6,29.68,SSE,157,6.0,6.0,48,0.00,CLR,SKC,0.00,WeatherDisplay:10.37,2013-05-22 21:02:00,
2013-05-22 17:07:00,88.6,66.4,29.68,SSE,148,1.1,1.1,48,0.00,CLR,SKC,0.00,WeatherDisplay:10.37,2013-05-22 21:07:00,
2013-05-22 17:12:00,88.7,67.1,29.67,North,355,3.4,3.4,49,0.00,CLR,SKC,0.00,WeatherDisplay:10.37,2013-05-22 21:12:00,
2013-05-22 17:17:00,88.9,66.7,29.68,ESE,103,0.0,0.0,48,0.00,CLR,SKC,0.00,WeatherDisplay:10.37,2013-05-22 21:17:00,
2013-05-22 17:22:00,89.2,67.5,29.68,SSW,195,3.4,3.4,49,0.00,CLR,SKC,0.00,WeatherDisplay:10.37,2013-05-22 21:22:00,
2013-05-22 17:27:00,89.0,66.8,29.67,East,92,3.4,3.4,48,0.00,CLR,SKC,0.00,WeatherDisplay:10.37,2013-05-22 21:27:00,
2013-05-22 17:32:00,88.9,67.3,29.67,SSE,159,4.6,4.6,49,0.00,CLR,SKC,0.00,WeatherDisplay:10.37,2013-05-22 21:32:00,
2013-05-22 17:37:00,88.7,65.9,29.67,ENE,70,11.5,11.5,47,0.00,CLR,SKC,0.00,WeatherDisplay:10.37,2013-05-22 21:37:00,
2013-05-22 17:42:00,88.6,65.8,29.67,East,96,2.3,2.3,47,0.00,CLR,SKC,0.00,WeatherDisplay:10.37,2013-05-22 21:42:00,
2013-05-22 17:47:00,88.5,66.3,29.67,SE,138,1.1,1.1,48,0.00,CLR,SKC,0.00,WeatherDisplay:10.37,2013-05-22 21:47:00,
2013-05-22 17:52:00,88.5,66.3,29.67,South,171,1.1,1.1,48,0.00,CLR,SKC,0.00,WeatherDisplay:10.37,2013-05-22 21:52:00,
2013-05-22 17:57:00,88.4,66.8,29.67,SSW,200,2.3,2.3,49,0.00,CLR,SKC,0.00,WeatherDisplay:10.37,2013-05-22 21:57:00,
2013-05-22 18:02:00,88.2,66.6,29.67,South,180,2.3,2.3,49,0.00,CLR,SKC,0.00,WeatherDisplay:10.37,2013-05-22 22:02:00,
2013-05-22 18:07:00,88.2,67.2,29.67,East,86,6.0,6.0,50,0.00,CLR,SKC,0.00,WeatherDisplay:10.37,2013-05-22 22:07:00,
2013-05-22 18:12:00,88.2,67.8,29.67,ENE,74,1.1,0.0,51,0.00,CLR,SKC,0.00,WeatherDisplay:10.37,2013-05-22 22:12:00,
2013-05-22 18:17:00,88.3,66.7,29.67,SSE,168,5.8,5.8,49,0.00,CLR,SKC,0.00,WeatherDisplay:10.37,2013-05-22 22:17:00,
2013-05-22 18:22:00,88.2,66.6,29.67,ENE,67,4.0,4.0,49,0.00,CLR,SKC,0.00,WeatherDisplay:10.37,2013-05-22 22:22:00,
2013-05-22 18:27:00,87.9,66.4,29.67,ESE,118,2.3,2.3,49,0.00,CLR,SKC,0.00,WeatherDisplay:10.37,2013-05-22 22:27:00,
2013-05-22 18:32:00,87.5,66.6,29.67,SE,142,6.9,6.9,50,0.00,CLR,SKC,0.00,WeatherDisplay:10.37,2013-05-22 22:32:00,
2013-05-22 18:37:00,87.3,66.4,29.67,SE,134,3.4,3.4,50,0.00,CLR,SKC,0.00,WeatherDisplay:10.37,2013-05-22 22:37:00,
2013-05-22 18:42:00,87.2,66.3,29.67,NE,38,1.1,1.1,50,0.00,CLR,SKC,0.00,WeatherDisplay:10.37,2013-05-22 22:42:00,
2013-05-22 18:47:00,87.0,66.1,29.67,East,90,2.3,2.3,50,0.00,CLR,SKC,0.00,WeatherDisplay:10.37,2013-05-22 22:47:00,
2013-05-22 18:52:00,86.7,66.4,29.67,East,98,0.0,0.0,51,0.00,CLR,SKC,0.00,WeatherDisplay:10.37,2013-05-22 22:52:00,
2013-05-22 18:57:00,86.5,66.8,29.67,East,101,0.0,0.0,52,0.00,CLR,SKC,0.00,WeatherDisplay:10.37,2013-05-22 22:57:00,
2013-05-22 19:02:00,86.3,66.0,29.67,SSE,161,2.3,2.3,51,0.00,CLR,SKC,0.00,WeatherDisplay:10.37,2013-05-22 23:02:00,
2013-05-22 19:07:00,86.0,66.3,29.67,SE,133,3.4,3.4,52,0.00,CLR,SKC,0.00,WeatherDisplay:10.37,2013-05-22 23:07:00,
2013-05-22 19:12:00,85.8,66.7,29.68,NNE,31,3.4,3.4,53,0.00,CLR,SKC,0.00,WeatherDisplay:10.37,2013-05-22 23:12:00,
2013-05-22 19:17:00,85.6,66.0,29.68,SSE,152,2.3,2.3,52,0.00,CLR,SKC,0.00,WeatherDisplay:10.37,2013-05-22 23:17:00,
2013-05-22 19:22:00,85.4,66.3,29.68,ESE,103,1.1,1.1,53,0.00,CLR,SKC,0.00,WeatherDisplay:10.37,2013-05-22 23:22:00,
2013-05-22 19:27:00,85.3,66.8,29.68,ESE,103,1.0,0.0,54,0.00,CLR,SKC,0.00,WeatherDisplay:10.37,2013-05-22 23:27:00,
2013-05-22 19:32:00,85.0,66.5,29.68,South,184,1.1,0.0,54,0.00,CLR,SKC,0.00,WeatherDisplay:10.37,2013-05-22 23:32:00,
2013-05-22 19:37:00,84.7,66.2,29.69,ENE,63,3.4,3.4,54,0.00,CLR,SKC,0.00,WeatherDisplay:10.37,2013-05-22 23:37:00,
2013-05-22 19:42:00,84.5,66.6,29.69,ENE,76,0.0,0.0,55,0.00,CLR,SKC,0.00,WeatherDisplay:10.37,2013-05-22 23:42:00,
2013-05-22 19:47:00,84.3,66.4,29.69,SE,146,1.1,0.0,55,0.00,CLR,SKC,0.00,WeatherDisplay:10.37,2013-05-22 23:47:00,
2013-05-22 19:52:00,84.2,66.3,29.70,NE,53,1.1,1.1,55,0.00,CLR,SKC,0.00,WeatherDisplay:10.37,2013-05-22 23:52:00,
2013-05-22 19:57:00,84.2,66.8,29.71,NE,41,4.6,4.6,56,0.00,CLR,SKC,0.00,WeatherDisplay:10.37,2013-05-22 23:57:00,
2013-05-22 20:02:00,83.7,64.8,29.73,NE,38,12.6,12.6,53,0.00,CLR,SKC,0.00,WeatherDisplay:10.37,2013-05-23 00:02:00,
2013-05-22 20:07:00,81.5,63.8,29.75,NE,35,8.1,8.1,55,0.00,CLR,SKC,0.00,WeatherDisplay:10.37,2013-05-23 00:07:00,
2013-05-22 20:12:00,79.2,63.1,29.75,NNW,345,17.3,17.3,58,0.00,CLR,SKC,0.00,WeatherDisplay:10.37,2013-05-23 00:12:00,
2013-05-22 20:17:00,77.1,64.4,29.76,NNE,21,12.6,12.6,65,0.00,CLR,SKC,0.00,WeatherDisplay:10.37,2013-05-23 00:17:00,
2013-05-22 20:22:00,73.9,64.7,29.76,North,5,11.5,11.5,73,0.02,RA,SKC,0.02,WeatherDisplay:10.37,2013-05-23 00:22:00,
2013-05-22 20:27:00,71.3,64.1,29.76,NE,36,14.9,14.9,78,0.03,RA,SKC,0.03,WeatherDisplay:10.37,2013-05-23 00:27:00,
2013-05-22 20:32:00,70.1,64.3,29.76,NNE,27,11.5,11.5,82,0.03,RA,SKC,0.03,WeatherDisplay:10.37,2013-05-23 00:32:00,
2013-05-22 20:37:00,69.3,63.9,29.76,NNE,13,11.5,11.5,83,0.04,RA,SKC,0.04,WeatherDisplay:10.37,2013-05-23 00:37:00,
2013-05-22 20:42:00,69.0,63.6,29.76,NNE,25,6.9,6.9,83,0.04,RA,SKC,0.04,WeatherDisplay:10.37,2013-05-23 00:42:00,
2013-05-22 20:47:00,69.0,63.6,29.76,ENE,76,1.1,1.1,83,0.04,CLR,SKC,0.04,WeatherDisplay:10.37,2013-05-23 00:47:00,
2013-05-22 20:52:00,69.0,64.0,29.77,South,182,0.0,0.0,84,0.04,CLR,SKC,0.04,WeatherDisplay:10.37,2013-05-23 00:52:00,
2013-05-22 20:57:00,68.8,64.1,29.78,NNE,30,0.0,0.0,85,0.05,RA,SKC,0.06,WeatherDisplay:10.37,2013-05-23 00:57:00,
2013-05-22 21:02:00,68.6,64.6,29.78,NNE,30,1.1,1.1,87,0.08,RA,SKC,0.08,WeatherDisplay:10.37,2013-05-23 01:02:00,
2013-05-22 21:07:00,68.2,64.5,29.78,NNE,30,0.0,0.0,88,0.10,RA,SKC,0.10,WeatherDisplay:10.37,2013-05-23 01:07:00,
2013-05-22 21:12:00,67.9,63.9,29.78,NE,35,3.4,3.4,87,0.12,RA,SKC,0.12,WeatherDisplay:10.37,2013-05-23 01:12:00,
2013-05-22 21:17:00,67.6,63.9,29.78,NE,37,0.0,0.0,88,0.12,RA,SKC,0.12,WeatherDisplay:10.37,2013-05-23 01:17:00,
2013-05-22 21:22:00,67.3,63.9,29.78,NNE,29,3.4,3.4,89,0.11,RA,SKC,0.13,WeatherDisplay:10.37,2013-05-23 01:22:00,
2013-05-22 21:27:00,67.2,63.8,29.78,NNW,336,3.4,3.4,89,0.11,RA,SKC,0.14,WeatherDisplay:10.37,2013-05-23 01:27:00,
2013-05-22 21:32:00,67.2,63.8,29.78,NW,323,3.4,0.0,89,0.11,RA,SKC,0.14,WeatherDisplay:10.37,2013-05-23 01:32:00,
2013-05-22 21:37:00,67.2,64.2,29.79,NW,323,0.0,0.0,90,0.10,CLR,SKC,0.14,WeatherDisplay:10.37,2013-05-23 01:37:00,
2013-05-22 21:42:00,67.2,64.2,29.79,South,190,0.0,0.0,90,0.11,RA,SKC,0.15,WeatherDisplay:10.37,2013-05-23 01:42:00,
2013-05-22 21:47:00,67.2,64.5,29.79,South,190,0.0,0.0,91,0.11,RA,SKC,0.15,WeatherDisplay:10.37,2013-05-23 01:47:00,
2013-05-22 21:52:00,67.2,64.5,29.79,South,190,0.0,0.0,91,0.11,CLR,SKC,0.15,WeatherDisplay:10.37,2013-05-23 01:52:00,
2013-05-22 21:57:00,67.2,64.8,29.79,South,190,1.1,1.1,92,0.10,CLR,SKC,0.15,WeatherDisplay:10.37,2013-05-23 01:57:00,
2013-05-22 22:02:00,67.1,65.0,29.79,South,190,3.4,3.4,93,0.07,CLR,SKC,0.15,WeatherDisplay:10.37,2013-05-23 02:02:00,
2013-05-22 22:07:00,67.0,64.9,29.79,SSW,210,2.3,2.3,93,0.05,CLR,SKC,0.15,WeatherDisplay:10.37,2013-05-23 02:07:00,
2013-05-22 22:12:00,66.9,64.8,29.79,SSW,204,2.3,0.0,93,0.03,CLR,SKC,0.15,WeatherDisplay:10.37,2013-05-23 02:12:00,
2013-05-22 22:17:00,66.9,64.8,29.79,South,191,3.4,3.4,93,0.03,CLR,SKC,0.15,WeatherDisplay:10.37,2013-05-23 02:17:00,
2013-05-22 22:22:00,66.8,64.7,29.79,South,191,0.0,0.0,93,0.02,CLR,SKC,0.15,WeatherDisplay:10.37,2013-05-23 02:22:00,
2013-05-22 22:27:00,66.8,64.7,29.79,South,191,0.0,0.0,93,0.01,CLR,SKC,0.15,WeatherDisplay:10.37,2013-05-23 02:27:00,
2013-05-22 22:32:00,66.7,64.6,29.79,South,191,0.0,0.0,93,0.01,CLR,SKC,0.15,WeatherDisplay:10.37,2013-05-23 02:32:00,
2013-05-22 22:37:00,66.8,65.0,29.78,South,191,0.0,0.0,94,0.01,CLR,SKC,0.15,WeatherDisplay:10.37,2013-05-23 02:37:00,
2013-05-22 22:42:00,66.7,64.9,29.78,South,191,0.0,0.0,94,0.00,CLR,SKC,0.15,WeatherDisplay:10.37,2013-05-23 02:42:00,
2013-05-22 22:47:00,66.7,64.9,29.79,South,191,0.0,0.0,94,0.00,CLR,SKC,0.15,WeatherDisplay:10.37,2013-05-23 02:47:00,
2013-05-22 22:52:00,66.7,64.9,29.78,South,191,0.0,0.0,94,0.00,CLR,SKC,0.15,WeatherDisplay:10.37,2013-05-23 02:52:00,
2013-05-22 22:57:00,66.6,64.8,29.77,South,191,0.0,0.0,94,0.00,CLR,SKC,0.15,WeatherDisplay:10.37,2013-05-23 02:57:00,
2013-05-22 23:02:00,66.6,64.8,29.77,South,191,0.0,0.0,94,0.00,CLR,SKC,0.15,WeatherDisplay:10.37,2013-05-23 03:02:00,
2013-05-22 23:07:00,66.5,64.7,29.76,South,191,0.0,0.0,94,0.00,CLR,SKC,0.15,WeatherDisplay:10.37,2013-05-23 03:07:00,
2013-05-22 23:12:00,66.5,64.7,29.77,South,191,1.1,0.0,94,0.01,RA,SKC,0.16,WeatherDisplay:10.37,2013-05-23 03:12:00,
2013-05-22 23:17:00,66.6,65.1,29.77,South,175,0.0,0.0,95,0.01,RA,SKC,0.16,WeatherDisplay:10.37,2013-05-23 03:17:00,
2013-05-22 23:22:00,66.6,65.1,29.77,South,175,0.0,0.0,95,0.01,CLR,SKC,0.16,WeatherDisplay:10.37,2013-05-23 03:22:00,
2013-05-22 23:27:00,66.6,65.1,29.76,South,175,0.0,0.0,95,0.01,CLR,SKC,0.16,WeatherDisplay:10.37,2013-05-23 03:27:00,
2013-05-22 23:32:00,66.6,65.1,29.77,South,175,0.0,0.0,95,0.01,CLR,SKC,0.16,WeatherDisplay:10.37,2013-05-23 03:32:00,
2013-05-22 23:37:00,66.6,65.1,29.77,South,175,0.0,0.0,95,0.01,CLR,SKC,0.16,WeatherDisplay:10.37,2013-05-23 03:37:00,
2013-05-22 23:42:00,66.6,65.1,29.77,South,175,0.0,0.0,95,0.02,RA,SKC,0.17,WeatherDisplay:10.37,2013-05-23 03:42:00,
2013-05-22 23:47:00,66.6,65.1,29.77,South,175,0.0,0.0,95,0.02,RA,SKC,0.17,WeatherDisplay:10.37,2013-05-23 03:47:00,
2013-05-22 23:52:00,66.6,65.1,29.78,South,175,0.0,0.0,95,0.02,,SKC,0.17,WeatherDisplay:10.37,2013-05-23 03:52:00,
2013-05-22 23:57:00,66.6,65.1,29.78,South,175,0.0,0.0,95,0.02,CLR,SKC,0.17,WeatherDisplay:10.37,2013-05-23 03:57:00,